sat.trackr.live / text

‹ back to catalog

STARLINK-5480

NORAD 55664 · 2023-021AN

PAYLOAD ACTIVE UNKNOWN

§ Identity

Operator
Country
US
Launch date
2023-02-17
Launch site
AFWTR
Launch vehicle
Mass (kg)
RCS (m²)

Purposes: comms

External: N2YO · Heavens-Above · Gunter

§ Orbital elements

Epoch: 2026-05-24T22:30:20.958048Z

Period
96.11 min
Inclination
69.9995°
Eccentricity
0.0002907
Mean motion
14.98330160 rev/d
Perigee alt
570.0 km
Apogee alt
574.1 km
Semi-major
6,950.2 km
B*
4.7385e-5
RAAN
332.2919°
Arg perigee
268.6667°
Mean anomaly
91.4159°
Rev number
18,070

§ Raw data

STARLINK-54801 55664U 23021AN  26144.93774257  .00000472  00000+0  47385-4 0  99982 55664  69.9995 332.2919 0002907 268.6667  91.4159 14.98330160180703

JSON: /api/v1/satellites/55664 · /tle

For live sub-satellite position, see the globe view (requires WebGL).

§ Visibility from observer

Set your observer location to see the next 7 days of passes ≥ 10°. The values pass through the URL so the page stays shareable.

No JS? Fill the form by hand. The geolocation button needs JavaScript.